{"data":{"norad_id":68583,"epoch":"2026-09-20T00:27:25.048224Z","epoch_age_seconds":107954,"freshness":"FRESH","line1":"1 68583U 26072L   26263.01903991  .00000949  00000+0  15346-3 0  9991","line2":"2 68583  51.8995 121.3162 0001358  88.7203 271.3915 14.79929197 25373","mean_motion":14.79929197,"eccentricity":0.0001358,"inclination_deg":51.8995,"raan_deg":121.3162,"arg_perigee_deg":88.7203,"mean_anomaly_deg":271.3915,"bstar":0.00015346,"rev_number":2537,"period_min":97.301952209542,"perigee_km":628.59599075597,"apogee_km":630.49927790266,"semimajor_km":7007.6846343293,"source":"CELESTRAK","updated_at":"2026-09-20T09:00:24.321067Z"}}